TimeCST,TemperatureF,Dew PointF,Humidity,Sea Level PressureIn,VisibilityMPH,Wind Direction,Wind SpeedMPH,Gust SpeedMPH,PrecipitationIn,Events,Conditions,WindDirDegrees,DateUTC
12:15 AM,7.5,-8.0,49,30.37,10.0,North,6.9,-,N/A,,Overcast,10,2013-12-06 06:15:00
12:35 AM,7.2,-7.8,51,30.37,10.0,NNE,8.1,-,N/A,,Overcast,20,2013-12-06 06:35:00
12:55 AM,6.8,-7.6,52,30.37,10.0,North,9.2,-,N/A,,Overcast,10,2013-12-06 06:55:00
1:15 AM,6.8,-6.9,54,30.37,10.0,North,8.1,-,N/A,,Overcast,360,2013-12-06 07:15:00
1:35 AM,6.8,-6.7,54,30.37,10.0,North,8.1,-,N/A,,Overcast,10,2013-12-06 07:35:00
1:55 AM,6.4,-6.7,55,30.37,10.0,North,8.1,-,N/A,,Overcast,360,2013-12-06 07:55:00
2:15 AM,5.9,-6.9,56,30.37,10.0,North,6.9,-,N/A,,Overcast,360,2013-12-06 08:15:00
2:35 AM,5.0,-6.9,58,30.37,10.0,North,6.9,-,N/A,,Overcast,360,2013-12-06 08:35:00
2:55 AM,4.8,-7.6,57,30.38,10.0,North,5.8,-,N/A,,Mostly Cloudy,360,2013-12-06 08:55:00
3:15 AM,3.9,-8.3,57,30.39,10.0,North,8.1,-,N/A,,Scattered Clouds,360,2013-12-06 09:15:00
3:35 AM,2.7,-8.9,59,30.40,10.0,North,8.1,-,N/A,,Scattered Clouds,350,2013-12-06 09:35:00
3:55 AM,1.9,-9.0,60,30.40,10.0,NNW,6.9,-,N/A,,Scattered Clouds,340,2013-12-06 09:55:00
4:15 AM,1.2,-9.4,61,30.39,10.0,North,9.2,-,N/A,,Clear,360,2013-12-06 10:15:00
4:35 AM,0.3,-9.8,63,30.40,10.0,North,6.9,-,N/A,,Clear,360,2013-12-06 10:35:00
4:55 AM,-0.6,-9.9,65,30.40,10.0,North,4.6,-,N/A,,Clear,350,2013-12-06 10:55:00
5:15 AM,-0.9,-9.8,66,30.40,10.0,North,5.8,-,N/A,,Clear,350,2013-12-06 11:15:00
5:35 AM,-2.6,-10.7,68,30.41,10.0,North,3.5,-,N/A,,Clear,360,2013-12-06 11:35:00
5:55 AM,-3.1,-10.3,71,30.42,10.0,North,4.6,-,N/A,,Clear,360,2013-12-06 11:55:00
6:15 AM,-2.2,-10.3,68,30.42,10.0,North,6.9,-,N/A,,Clear,360,2013-12-06 12:15:00
6:35 AM,-3.1,-10.7,70,30.42,10.0,North,6.9,-,N/A,,Clear,360,2013-12-06 12:35:00
6:55 AM,-3.1,-10.5,71,30.43,10.0,North,6.9,-,N/A,,Clear,360,2013-12-06 12:55:00
7:15 AM,-3.1,-10.7,70,30.43,10.0,North,6.9,-,N/A,,Clear,360,2013-12-06 13:15:00
7:35 AM,-4.0,-11.2,71,30.44,10.0,North,4.6,-,N/A,,Clear,10,2013-12-06 13:35:00
7:55 AM,-3.5,-10.3,73,30.44,10.0,North,5.8,-,N/A,,Clear,350,2013-12-06 13:55:00
8:15 AM,-2.9,-10.1,71,30.45,10.0,North,4.6,-,N/A,,Clear,360,2013-12-06 14:15:00
8:35 AM,-1.7,-9.0,71,30.46,10.0,North,6.9,-,N/A,,Clear,360,2013-12-06 14:35:00
8:55 AM,-0.4,-8.9,67,30.46,10.0,North,9.2,-,N/A,,Clear,350,2013-12-06 14:55:00
9:15 AM,1.0,-8.7,64,30.47,10.0,North,10.4,-,N/A,,Scattered Clouds,350,2013-12-06 15:15:00
9:35 AM,1.6,-8.9,62,30.47,10.0,NNW,9.2,-,N/A,,Scattered Clouds,340,2013-12-06 15:35:00
9:55 AM,2.8,-8.9,58,30.47,10.0,North,11.5,-,N/A,,Scattered Clouds,360,2013-12-06 15:55:00
10:15 AM,4.3,-8.3,56,30.47,10.0,North,12.7,17.3,N/A,,Scattered Clouds,360,2013-12-06 16:15:00
10:35 AM,5.9,-8.0,53,30.47,10.0,North,10.4,17.3,N/A,,Clear,350,2013-12-06 16:35:00
10:55 AM,6.6,-8.5,50,30.49,10.0,North,11.5,17.3,N/A,,Clear,360,2013-12-06 16:55:00
11:15 AM,7.7,-8.0,49,30.49,10.0,North,10.4,-,N/A,,Clear,350,2013-12-06 17:15:00
11:35 AM,8.6,-8.0,47,30.48,10.0,North,10.4,-,N/A,,Clear,350,2013-12-06 17:35:00
11:55 AM,9.5,-8.0,45,30.48,10.0,North,10.4,-,N/A,,Clear,350,2013-12-06 17:55:00
12:15 PM,10.0,-9.0,42,30.48,10.0,North,9.2,-,N/A,,Clear,350,2013-12-06 18:15:00
12:35 PM,11.1,-9.0,40,30.48,10.0,North,10.4,-,N/A,,Scattered Clouds,350,2013-12-06 18:35:00
12:55 PM,11.7,-9.2,39,30.47,10.0,NNW,9.2,16.1,N/A,,Mostly Cloudy,340,2013-12-06 18:55:00
1:15 PM,12.7,-9.4,37,30.46,10.0,North,11.5,-,N/A,,Scattered Clouds,350,2013-12-06 19:15:00
1:35 PM,12.7,-10.5,35,30.45,10.0,North,10.4,18.4,N/A,,Clear,360,2013-12-06 19:35:00
1:55 PM,12.9,-10.5,35,30.44,10.0,North,9.2,-,N/A,,Clear,360,2013-12-06 19:55:00
2:15 PM,13.5,-10.3,34,30.44,10.0,North,11.5,-,N/A,,Scattered Clouds,360,2013-12-06 20:15:00
2:35 PM,12.7,-9.9,36,30.44,10.0,North,6.9,-,N/A,,Clear,360,2013-12-06 20:35:00
2:55 PM,14.2,-9.0,35,30.43,10.0,NNE,11.5,-,N/A,,Clear,20,2013-12-06 20:55:00
3:15 PM,13.8,-9.4,35,30.43,10.0,North,10.4,-,N/A,,Clear,10,2013-12-06 21:15:00
3:35 PM,13.8,-9.2,35,30.44,10.0,North,9.2,18.4,N/A,,Clear,360,2013-12-06 21:35:00
3:55 PM,13.6,-9.4,35,30.45,10.0,NNE,10.4,-,N/A,,Clear,20,2013-12-06 21:55:00
4:15 PM,13.1,-9.4,36,30.46,10.0,NNE,10.4,-,N/A,,Clear,20,2013-12-06 22:15:00
4:35 PM,12.6,-9.2,37,30.46,10.0,NNE,8.1,-,N/A,,Clear,30,2013-12-06 22:35:00
4:55 PM,11.3,-9.4,39,30.47,10.0,NE,8.1,-,N/A,,Clear,40,2013-12-06 22:55:00
5:15 PM,9.5,-9.8,42,30.47,10.0,NNE,6.9,-,N/A,,Clear,30,2013-12-06 23:15:00
5:35 PM,7.5,-9.8,45,30.48,10.0,NNE,5.8,-,N/A,,Clear,30,2013-12-06 23:35:00
5:55 PM,5.5,-10.3,48,30.50,10.0,NE,5.8,-,N/A,,Clear,40,2013-12-06 23:55:00
6:15 PM,5.2,-10.8,48,30.51,10.0,NNE,5.8,-,N/A,,Clear,30,2013-12-07 00:15:00
6:35 PM,3.0,-11.2,52,30.51,10.0,NNE,6.9,-,N/A,,Clear,30,2013-12-07 00:35:00
6:55 PM,1.6,-11.9,53,30.51,10.0,NNE,6.9,-,N/A,,Clear,30,2013-12-07 00:55:00
7:15 PM,1.9,-10.8,55,30.52,10.0,NNE,4.6,-,N/A,,Clear,30,2013-12-07 01:15:00
7:35 PM,1.2,-11.4,56,30.53,10.0,NNE,6.9,-,N/A,,Clear,30,2013-12-07 01:35:00
7:55 PM,0.7,-10.8,58,30.53,10.0,NNE,6.9,-,N/A,,Clear,30,2013-12-07 01:55:00
8:15 PM,0.1,-10.7,60,30.54,10.0,NE,6.9,-,N/A,,Clear,40,2013-12-07 02:15:00
8:35 PM,-0.0,-10.3,62,30.54,10.0,NE,5.8,-,N/A,,Clear,50,2013-12-07 02:35:00
8:55 PM,-0.2,-9.9,64,30.54,10.0,NE,5.8,-,N/A,,Clear,40,2013-12-07 02:55:00
9:15 PM,0.1,-10.3,61,30.54,10.0,NNE,6.9,-,N/A,,Clear,30,2013-12-07 03:15:00
9:35 PM,-1.7,-10.7,66,30.55,10.0,NE,4.6,-,N/A,,Clear,40,2013-12-07 03:35:00
9:55 PM,-1.7,-10.5,66,30.55,10.0,NNE,4.6,-,N/A,,Clear,30,2013-12-07 03:55:00
10:15 PM,-2.9,-11.6,67,30.55,10.0,NNE,4.6,-,N/A,,Clear,30,2013-12-07 04:15:00
10:35 PM,-2.4,-10.8,67,30.55,10.0,NNE,4.6,-,N/A,,Clear,20,2013-12-07 04:35:00
10:55 PM,-2.7,-11.2,67,30.56,10.0,NNE,6.9,-,N/A,,Clear,30,2013-12-07 04:55:00
11:15 PM,-2.6,-10.7,68,30.57,10.0,NNE,4.6,-,N/A,,Clear,30,2013-12-07 05:15:00
11:35 PM,-1.7,-9.8,68,30.57,10.0,North,4.6,-,N/A,,Clear,10,2013-12-07 05:35:00
11:55 PM,-2.6,-10.5,69,30.58,10.0,Calm,Calm,-,N/A,,Clear,0,2013-12-07 05:55:00